Hourly Weather Kraczew

Today, 24 October, Saturday

Time Temperature Precipitation Wind Pressure Humidity
00:00 +9°C° 0 mm 2 mps 739 mmHg 85%
01:00 +9°C° 0 mm 2 mps 739 mmHg 86%
02:00 +9°C° 0 mm 3 mps 739 mmHg 88%
03:00 +9°C° 0 mm 3 mps 739 mmHg 89%
04:00 +9°C° 0 mm 3 mps 738 mmHg 90%
05:00 +9°C° 0 mm 3 mps 738 mmHg 91%
06:00 +10°C° 0 mm 3 mps 738 mmHg 90%
07:00 +10°C° 0 mm 3 mps 738 mmHg 88%
08:00 +10°C° 0 mm 3 mps 738 mmHg 86%
09:00 +11°C° 0 mm 4 mps 739 mmHg 84%
10:00 +12°C° 0 mm 4 mps 739 mmHg 82%
11:00 +13°C° 0 mm 5 mps 739 mmHg 80%
12:00 +13°C° 0 mm 5 mps 739 mmHg 80%
13:00 +14°C° 0 mm 5 mps 740 mmHg 81%
14:00 +14°C° 0 mm 6 mps 740 mmHg 81%
15:00 +14°C° 0 mm 5 mps 740 mmHg 82%
16:00 +13°C° 0 mm 4 mps 740 mmHg 83%
17:00 +13°C° 0 mm 3 mps 740 mmHg 85%
18:00 +13°C° 0 mm 2 mps 741 mmHg 86%
19:00 +12°C° 0 mm 2 mps 741 mmHg 87%
20:00 +11°C° 0 mm 1 mps 742 mmHg 89%
21:00 +11°C° 0 mm 1 mps 742 mmHg 89%
22:00 +11°C° 0 mm 1 mps 742 mmHg 90%
23:00 +10°C° 0 mm 1 mps 742 mmHg 90%

Tomorrow, 25 October, Sunday

Time Temperature Precipitation Wind Pressure Humidity
00:00 +10°C° 0 mm 1 mps 742 mmHg 91%
01:00 +10°C° 0 mm 1 mps 742 mmHg 91%
02:00 +10°C° 0 mm 1 mps 743 mmHg 92%
03:00 +10°C° 0 mm 1 mps 742 mmHg 93%
04:00 +10°C° 0 mm 1 mps 742 mmHg 93%
05:00 +9°C° 0 mm 1 mps 742 mmHg 94%
06:00 +10°C° 0 mm 1 mps 742 mmHg 94%
07:00 +10°C° 0 mm 1 mps 743 mmHg 94%
08:00 +10°C° 0 mm 1 mps 743 mmHg 94%
09:00 +10°C° 0 mm 2 mps 743 mmHg 88%
10:00 +13°C° 0 mm 2 mps 743 mmHg 82%
11:00 +13°C° 0 mm 3 mps 743 mmHg 76%
12:00 +14°C° 0 mm 3 mps 742 mmHg 73%
13:00 +14°C° 0 mm 3 mps 742 mmHg 70%
14:00 +16°C° 0 mm 3 mps 742 mmHg 66%
15:00 +14°C° 0 mm 3 mps 741 mmHg 70%
16:00 +13°C° 0 mm 3 mps 741 mmHg 74%
17:00 +12°C° 0 mm 3 mps 741 mmHg 78%
18:00 +12°C° 0 mm 3 mps 741 mmHg 79%
19:00 +12°C° 0 mm 3 mps 741 mmHg 79%
20:00 +11°C° 0 mm 4 mps 741 mmHg 80%
21:00 +11°C° 0 mm 4 mps 741 mmHg 82%
22:00 +11°C° 0 mm 4 mps 741 mmHg 85%
23:00 +11°C° 0 mm 4 mps 740 mmHg 87%

Day after tomorrow, 26 October, Monday

Time Temperature Precipitation Wind Pressure Humidity
00:00 +11°C° 0 mm 4 mps 740 mmHg 88%
01:00 +11°C° 0 mm 4 mps 740 mmHg 90%
02:00 +11°C° 0 mm 4 mps 740 mmHg 91%
03:00 +11°C° 0 mm 4 mps 739 mmHg 92%
04:00 +11°C° 0 mm 4 mps 739 mmHg 93%
05:00 +11°C° 0 mm 4 mps 739 mmHg 94%
06:00 +11°C° 0 mm 4 mps 739 mmHg 94%
07:00 +10°C° 0 mm 3 mps 739 mmHg 95%
08:00 +10°C° 0 mm 3 mps 739 mmHg 95%
09:00 +12°C° 0 mm 3 mps 739 mmHg 89%
10:00 +13°C° 0 mm 4 mps 739 mmHg 82%
11:00 +15°C° 0 mm 4 mps 739 mmHg 76%
12:00 +17°C° 0 mm 4 mps 739 mmHg 72%
13:00 +16°C° 0 mm 5 mps 739 mmHg 69%
14:00 +17°C° 0 mm 5 mps 739 mmHg 65%
15:00 +17°C° 0 mm 4 mps 738 mmHg 70%
16:00 +15°C° 0 mm 4 mps 738 mmHg 74%
17:00 +14°C° 0 mm 3 mps 738 mmHg 79%
18:00 +14°C° 0 mm 3 mps 738 mmHg 82%
19:00 +13°C° 0 mm 3 mps 739 mmHg 85%
20:00 +12°C° 0 mm 3 mps 739 mmHg 88%
21:00 +12°C° 0 mm 4 mps 739 mmHg 88%
22:00 +12°C° 0 mm 4 mps 739 mmHg 88%
23:00 +12°C° 0 mm 4 mps 739 mmHg 88%

, 27 October, Tuesday

Time Temperature Precipitation Wind Pressure Humidity
00:00 +12°C° 0 mm 4 mps 739 mmHg 87%
01:00 +12°C° 0 mm 4 mps 739 mmHg 87%
02:00 +12°C° 0 mm 4 mps 739 mmHg 86%
03:00 +11°C° 0 mm 4 mps 739 mmHg 86%
04:00 +11°C° 0 mm 4 mps 739 mmHg 85%
05:00 +11°C° 0 mm 4 mps 739 mmHg 85%
06:00 +11°C° 0 mm 4 mps 739 mmHg 85%
07:00 +11°C° 0 mm 4 mps 739 mmHg 85%
08:00 +11°C° 0 mm 4 mps 739 mmHg 85%
09:00 +13°C° 0 mm 4 mps 740 mmHg 79%
10:00 +14°C° 0 mm 4 mps 740 mmHg 73%
11:00 +17°C° 0 mm 4 mps 740 mmHg 67%
12:00 +18°C° 0 mm 4 mps 740 mmHg 65%
13:00 +18°C° 0 mm 4 mps 740 mmHg 62%
14:00 +19°C° 0 mm 3 mps 740 mmHg 60%
15:00 +18°C° 0 mm 3 mps 740 mmHg 66%
16:00 +17°C° 0 mm 3 mps 740 mmHg 73%
17:00 +14°C° 0 mm 3 mps 739 mmHg 79%
18:00 +14°C° 0 mm 3 mps 740 mmHg 83%
19:00 +13°C° 0 mm 3 mps 740 mmHg 87%
20:00 +13°C° 0 mm 3 mps 740 mmHg 91%
21:00 +12°C° 0 mm 3 mps 740 mmHg 92%
22:00 +12°C° 0 mm 3 mps 740 mmHg 93%
23:00 +12°C° 0 mm 3 mps 740 mmHg 94%

27 October, Tuesday

Time Temperature Precipitation Wind Pressure Humidity
00:00 +12°C° 0 mm 4 mps 739 mmHg 87%
01:00 +12°C° 0 mm 4 mps 739 mmHg 87%
02:00 +12°C° 0 mm 4 mps 739 mmHg 86%
03:00 +11°C° 0 mm 4 mps 739 mmHg 86%
04:00 +11°C° 0 mm 4 mps 739 mmHg 85%
05:00 +11°C° 0 mm 4 mps 739 mmHg 85%
06:00 +11°C° 0 mm 4 mps 739 mmHg 85%
07:00 +11°C° 0 mm 4 mps 739 mmHg 85%
08:00 +11°C° 0 mm 4 mps 739 mmHg 85%
09:00 +13°C° 0 mm 4 mps 740 mmHg 79%
10:00 +14°C° 0 mm 4 mps 740 mmHg 73%
11:00 +17°C° 0 mm 4 mps 740 mmHg 67%
12:00 +18°C° 0 mm 4 mps 740 mmHg 65%
13:00 +18°C° 0 mm 4 mps 740 mmHg 62%
14:00 +19°C° 0 mm 3 mps 740 mmHg 60%
15:00 +18°C° 0 mm 3 mps 740 mmHg 66%
16:00 +17°C° 0 mm 3 mps 740 mmHg 73%
17:00 +14°C° 0 mm 3 mps 739 mmHg 79%
18:00 +14°C° 0 mm 3 mps 740 mmHg 83%
19:00 +13°C° 0 mm 3 mps 740 mmHg 87%
20:00 +13°C° 0 mm 3 mps 740 mmHg 91%
21:00 +12°C° 0 mm 3 mps 740 mmHg 92%
22:00 +12°C° 0 mm 3 mps 740 mmHg 93%
23:00 +12°C° 0 mm 3 mps 740 mmHg 94%

28 October, Wednesday

Time Temperature Precipitation Wind Pressure Humidity
00:00 +11°C° 0 mm 3 mps 740 mmHg 94%
01:00 +12°C° 0 mm 2 mps 740 mmHg 94%
02:00 +12°C° 0 mm 2 mps 740 mmHg 94%
03:00 +12°C° 0 mm 2 mps 740 mmHg 94%
04:00 +10°C° 0 mm 2 mps 740 mmHg 93%
05:00 +10°C° 0 mm 2 mps 740 mmHg 92%
06:00 +11°C° 0 mm 1 mps 740 mmHg 92%
07:00 +11°C° 0 mm 1 mps 741 mmHg 91%
08:00 +11°C° 0 mm 1 mps 741 mmHg 90%
09:00 +12°C° 0 mm 1 mps 741 mmHg 85%
10:00 +14°C° 0 mm 1 mps 741 mmHg 79%
11:00 +14°C° 0 mm 0 mps 741 mmHg 73%
12:00 +16°C° 0 mm 1 mps 741 mmHg 70%
13:00 +16°C° 0 mm 1 mps 741 mmHg 68%
14:00 +18°C° 0 mm 1 mps 741 mmHg 65%
15:00 +16°C° 0 mm 1 mps 741 mmHg 69%
16:00 +15°C° 0 mm 1 mps 741 mmHg 74%
17:00 +14°C° 0 mm 1 mps 741 mmHg 79%
18:00 +14°C° 0 mm 1 mps 741 mmHg 81%
19:00 +13°C° 0 mm 1 mps 741 mmHg 84%
20:00 +13°C° 0 mm 1 mps 741 mmHg 86%
21:00 +12°C° 0 mm 2 mps 741 mmHg 87%
22:00 +12°C° 0 mm 2 mps 741 mmHg 88%
23:00 +12°C° 0 mm 2 mps 741 mmHg 89%

29 October, Thursday

Time Temperature Precipitation Wind Pressure Humidity
00:00 +12°C° 0 mm 2 mps 741 mmHg 89%
01:00 +11°C° 0 mm 1 mps 741 mmHg 90%
02:00 +11°C° 0 mm 1 mps 741 mmHg 90%
03:00 +11°C° 0 mm 1 mps 741 mmHg 90%
04:00 +11°C° 0 mm 1 mps 741 mmHg 89%
05:00 +10°C° 0 mm 1 mps 741 mmHg 89%
06:00 +10°C° 0 mm 1 mps 742 mmHg 89%
07:00 +11°C° 0 mm 1 mps 742 mmHg 89%
08:00 +11°C° 0 mm 1 mps 742 mmHg 89%
09:00 +12°C° 0 mm 1 mps 742 mmHg 84%
10:00 +13°C° 0 mm 1 mps 742 mmHg 79%
11:00 +15°C° 0 mm 1 mps 743 mmHg 74%
12:00 +15°C° 0 mm 1 mps 743 mmHg 73%
13:00 +16°C° 0 mm 1 mps 743 mmHg 71%
14:00 +16°C° 0 mm 2 mps 743 mmHg 69%
15:00 +15°C° 0 mm 2 mps 743 mmHg 73%
16:00 +15°C° 0 mm 2 mps 743 mmHg 76%
17:00 +14°C° 0 mm 2 mps 743 mmHg 80%
18:00 +13°C° 0 mm 2 mps 743 mmHg 81%
19:00 +13°C° 0 mm 2 mps 744 mmHg 82%
20:00 +12°C° 0 mm 2 mps 744 mmHg 84%
21:00 +12°C° 0 mm 2 mps 744 mmHg 84%
22:00 +10°C° 0 mm 2 mps 744 mmHg 85%
23:00 +10°C° 0 mm 2 mps 745 mmHg 86%
Show more